Simultaneous Nadir Overpasses (SNOs) Predictions

Prediction of SNOs near US between AQUA and NPP Satellite Orbit:

Table of predicted SNOs near US for the next 10.0 days since TLE Epoch: 1/6/2017
Index Date (AQUA) Time (AQUA) AQUA Lat,Lon Date (NPP) Time (NPP) NPP Lat,Lon Distance(km) Time Diff (sec)
1 01/08/2017 09:22:58 24.47,-113.16 01/08/2017 09:15:52 24.59,-113.69 55.43 426
2 01/11/2017 06:30:02 46.28, -65.03 01/11/2017 06:30:56 46.71, -67.15 168.76 54
3 01/11/2017 08:07:54 49.90, -88.32 01/11/2017 08:11:21 50.44, -90.93 195.55 207
4 01/11/2017 09:46:47 49.90,-113.03 01/11/2017 09:52:49 50.55,-116.25 239.92 362
5 01/13/2017 19:06:03 49.97, -92.53 01/13/2017 19:01:37 49.61, -94.47 145.25 266
6 01/13/2017 20:44:56 49.97,-117.24 01/13/2017 20:43:05 49.51,-119.80 190.57 111
7 01/16/2017 08:34:44 20.01,-101.85 01/16/2017 08:26:24 19.87,-102.18 38.63 500
8 01/16/2017 10:11:09 28.93,-124.39 01/16/2017 10:05:17 29.06,-125.20 79.55 352




NCC Satellite Simultaneous Nadir Overpasses (SNOs) Prediction Service
